Regional Weather Roundup
Issued by NWS Sioux Falls, SD

Home | Current Version | Previous Version | Text Only | Print | Product List | Glossary On
Versions: 1 2 3 4 5 6 7 8 9 10 11 12 13 14 15 16 17 18 19 20 21 22 23 24 25 26 27 28 29 30 31 32 33 34 35 36 37 38 39 40 41 42 43 44 45 46 47 48 49 50
000
ASUS43 KFSD 191902
RWRFSD

WEATHER ROUNDUP FOR SE SOUTH DAKOTA/SW MINNESOTA/NW IOWA
NATIONAL WEATHER SERVICE SIOUX FALLS SD
200 PM CDT THU OCT 19 2017

NOTE: "FAIR" INDICATES FEW OR NO CLOUDS BELOW 12,000 FEET WITH NO
SIGNIFICANT WEATHER AND OR OBSTRUCTIONS TO VISIBILITY.


SDZ038>040-050-052>070-192000-
SOUTHEAST SOUTH DAKOTA

CITY           SKY/WX    TMP DP  RH WIND       PRES   REMARKS
BROOKINGS      FAIR      70  48  45 S23G29    29.93F
CHAMBERLAIN    FAIR      77  46  32 S17       29.86F
HURON          FAIR      73  41  31 S17G25    29.86F
MADISON        FAIR      68  46  45 S21G30    29.95F
MITCHELL       FAIR      74  46  36 S20G28    29.89F
SIOUX FALLS    FAIR      72  51  47 S18G26    29.96F
WINNER         FAIR      79  44  28 S17       29.86F
YANKTON        FAIR      74  51  44 S15G23    29.95F
$$

MNZ071-072-080-081-089-090-097-098-192000-
SOUTHWEST MINNESOTA

CITY           SKY/WX    TMP DP  RH WIND       PRES   REMARKS
FAIRMONT       FAIR      70  37  29 S20       30.03F
JACKSON        FAIR      70  36  28 S17G24    30.03F
MARSHALL       FAIR      74  45  35 S28       29.92F
MONTEVIDEO     FAIR      73  39  29 SW14G21   29.92F
PIPESTONE      FAIR      72  45  37 SW18G26   29.96F
REDWOOD FALLS  FAIR      72  36  26 S24       29.96F
TRACY          FAIR      73  45  36 S18G26    29.96F
WORTHINGTON    FAIR      73  45  36 S17G25    30.00F
$$

IAZ001>003-012>014-020>022-031-032-NEZ013-014-SDZ071-192000-
NORTHWEST IOWA

CITY           SKY/WX    TMP DP  RH WIND       PRES   REMARKS
CHEROKEE       FAIR      72  48  42 S12G18    30.02F
DENISON        FAIR      73  50  43 S12       30.05F
ESTHERVILLE    FAIR      69  39  33 S15G25    30.03F
LE MARS        FAIR      75  48  38 S16       29.99F
ORANGE CITY    FAIR      73  48  40 S13G22    30.00F
SHELDON        FAIR      73  45  35 S15G22    29.99F
SIOUX CITY     FAIR      73  50  44 S15       30.00F
SPENCER        FAIR      73  43  33 S18G26    30.03F
STORM LAKE     FAIR      72  43  35 S14G21    30.04F
$$

ABBREVIATIONS USED IN REMARKS
   TC - TEMPERATURE IN CELSIUS
  WCI - WIND CHILL INDEX
   HX - HEAT INDEX
  VSB - VISIBILITY





USA.gov is the U.S. government's official web portal to all federal, state and local government web resources and services.